TimePST,TemperatureF,Dew PointF,Humidity,Sea Level PressureIn,VisibilityMPH,Wind Direction,Wind SpeedMPH,Gust SpeedMPH,PrecipitationIn,Events,Conditions,WindDirDegrees,DateUTC
12:15 AM,41.0,41.0,100,30.20,1.0,Calm,Calm,-,N/A,,Mist,0,2013-01-08 08:15:00
12:35 AM,41.0,41.0,100,30.21,3.0,South,4.6,-,N/A,,Mist,190,2013-01-08 08:35:00
12:55 AM,41.0,41.0,100,30.21,3.0,SSW,5.8,-,N/A,,Mist,200,2013-01-08 08:55:00
1:15 AM,41.0,41.0,100,30.22,4.0,South,6.9,-,N/A,,Mist,190,2013-01-08 09:15:00
1:35 AM,41.0,41.0,100,30.22,3.0,South,5.8,-,N/A,,Mist,170,2013-01-08 09:35:00
1:55 AM,39.2,39.2,100,30.22,0.5,South,3.5,-,N/A,Fog,Fog,180,2013-01-08 09:55:00
2:15 AM,41.0,41.0,100,30.21,3.0,South,5.8,-,N/A,,Mist,190,2013-01-08 10:15:00
2:35 AM,39.2,39.2,100,30.21,4.0,South,6.9,-,N/A,,Mist,190,2013-01-08 10:35:00
2:55 AM,41.0,41.0,100,30.21,2.5,SSW,5.8,-,N/A,,Mist,200,2013-01-08 10:55:00
3:15 AM,39.2,39.2,100,30.21,2.5,South,5.8,-,N/A,,Clear,190,2013-01-08 11:15:00
3:35 AM,39.2,39.2,100,30.21,3.0,Calm,Calm,-,N/A,,Clear,0,2013-01-08 11:35:00
3:55 AM,37.4,37.4,100,30.21,0.2,Calm,Calm,-,N/A,Fog,Fog,0,2013-01-08 11:55:00
4:15 AM,37.4,37.4,100,30.21,0.2,Calm,Calm,-,N/A,Fog,Fog,0,2013-01-08 12:15:00
4:55 AM,37.4,37.4,100,30.21,1.5,South,5.8,-,N/A,,Clear,170,2013-01-08 12:55:00
5:15 AM,39.2,39.2,100,30.21,2.5,Calm,Calm,-,N/A,,Clear,0,2013-01-08 13:15:00
5:35 AM,35.6,35.6,100,30.21,0.2,Calm,Calm,-,N/A,Fog,Fog,0,2013-01-08 13:35:00
5:55 AM,37.4,37.4,100,30.21,0.5,Calm,Calm,-,N/A,Fog,Fog,0,2013-01-08 13:55:00
6:15 AM,37.4,37.4,100,30.21,0.8,South,3.5,-,N/A,,Mist,190,2013-01-08 14:15:00
6:55 AM,33.8,33.8,100,30.23,0.2,North,4.6,-,N/A,Fog,Fog,350,2013-01-08 14:55:00
7:15 AM,35.6,35.6,100,30.23,0.5,Calm,Calm,-,N/A,Fog,Fog,0,2013-01-08 15:15:00
7:35 AM,35.6,35.6,100,30.23,0.5,Calm,Calm,-,N/A,Fog,Fog,0,2013-01-08 15:35:00
7:55 AM,35.6,35.6,100,30.23,0.2,Calm,Calm,-,N/A,Fog,Fog,0,2013-01-08 15:55:00
8:15 AM,35.6,35.6,100,30.24,0.2,Calm,Calm,-,N/A,Fog,Fog,0,2013-01-08 16:15:00
8:35 AM,35.6,35.6,100,30.25,0.2,Calm,Calm,-,N/A,Fog,Fog,0,2013-01-08 16:35:00
8:55 AM,37.4,37.4,100,30.26,0.2,Calm,Calm,-,N/A,Fog,Fog,0,2013-01-08 16:55:00
9:15 AM,39.2,39.2,100,30.26,0.5,Calm,Calm,-,N/A,Fog,Fog,0,2013-01-08 17:15:00
9:55 AM,42.8,42.8,100,30.27,0.5,Calm,Calm,-,N/A,Fog,Fog,0,2013-01-08 17:55:00
10:15 AM,46.4,46.4,100,30.27,5.0,Calm,Calm,-,N/A,,Mist,0,2013-01-08 18:15:00
10:35 AM,48.2,48.2,100,30.26,6.0,Calm,Calm,-,N/A,,Mist,0,2013-01-08 18:35:00
10:55 AM,50.0,48.2,94,30.25,8.0,SE,3.5,-,N/A,,Unknown,130,2013-01-08 18:55:00
11:15 AM,50.0,48.2,94,30.24,8.0,SE,3.5,-,N/A,,Unknown,130,2013-01-08 19:15:00
11:55 AM,51.8,46.4,82,30.22,9.0,ESE,6.9,-,N/A,,Unknown,120,2013-01-08 19:55:00
12:15 PM,51.8,46.4,82,30.21,9.0,SE,4.6,-,N/A,,Clear,140,2013-01-08 20:15:00
12:35 PM,53.6,46.4,77,30.20,10.0,SE,4.6,-,N/A,,Clear,130,2013-01-08 20:35:00
12:55 PM,53.6,46.4,77,30.19,10.0,SE,3.5,-,N/A,,Clear,140,2013-01-08 20:55:00
1:15 PM,53.6,46.4,77,30.18,10.0,Calm,Calm,-,N/A,,Clear,0,2013-01-08 21:15:00
1:35 PM,55.4,48.2,77,30.17,10.0,SE,4.6,-,N/A,,Clear,140,2013-01-08 21:35:00
1:55 PM,55.4,48.2,77,30.17,9.0,SE,5.8,-,N/A,,Clear,130,2013-01-08 21:55:00
2:15 PM,55.4,48.2,77,30.17,9.0,SE,6.9,-,N/A,,Clear,130,2013-01-08 22:15:00
2:35 PM,55.4,48.2,77,30.17,10.0,SE,6.9,-,N/A,,Clear,130,2013-01-08 22:35:00
2:55 PM,55.4,50.0,82,30.18,8.0,SE,5.8,-,N/A,,Clear,140,2013-01-08 22:55:00
3:15 PM,53.6,48.2,82,30.18,9.0,SE,6.9,-,N/A,,Clear,130,2013-01-08 23:15:00
3:35 PM,53.6,48.2,82,30.17,10.0,SE,5.8,-,N/A,,Clear,140,2013-01-08 23:35:00
3:55 PM,53.6,48.2,82,30.17,10.0,SE,4.6,-,N/A,,Clear,140,2013-01-08 23:55:00
4:15 PM,53.6,48.2,82,30.17,10.0,SSE,4.6,-,N/A,,Clear,150,2013-01-09 00:15:00
4:35 PM,51.8,48.2,88,30.16,10.0,SSE,3.5,-,N/A,,Clear,160,2013-01-09 00:35:00
4:55 PM,50.0,48.2,94,30.16,10.0,SSW,4.6,-,N/A,,Clear,200,2013-01-09 00:55:00
5:15 PM,48.2,46.4,93,30.16,10.0,WSW,3.5,-,N/A,,Clear,240,2013-01-09 01:15:00
5:55 PM,46.4,46.4,100,30.16,10.0,South,6.9,-,N/A,,Clear,190,2013-01-09 01:55:00
6:15 PM,46.4,46.4,100,30.16,9.0,SSW,5.8,-,N/A,,Clear,200,2013-01-09 02:15:00
6:35 PM,46.4,46.4,100,30.16,8.0,South,5.8,-,N/A,,Clear,180,2013-01-09 02:35:00
6:55 PM,44.6,44.6,100,30.16,8.0,South,4.6,-,N/A,,Clear,190,2013-01-09 02:55:00
7:15 PM,44.6,44.6,100,30.17,6.0,SSW,5.8,-,N/A,,Clear,200,2013-01-09 03:15:00
7:35 PM,44.6,44.6,100,30.17,6.0,South,5.8,-,N/A,,Clear,180,2013-01-09 03:35:00
7:55 PM,44.6,44.6,100,30.17,5.0,South,5.8,-,N/A,,Clear,190,2013-01-09 03:55:00
8:15 PM,44.6,44.6,100,30.17,6.0,South,4.6,-,N/A,,Clear,190,2013-01-09 04:15:00
8:35 PM,41.0,41.0,100,30.17,3.0,North,3.5,-,N/A,,Clear,10,2013-01-09 04:35:00
9:55 PM,41.0,41.0,100,30.17,4.0,South,4.6,-,N/A,,Clear,190,2013-01-09 05:55:00
10:15 PM,41.0,41.0,100,30.18,4.0,Calm,Calm,-,N/A,,Clear,0,2013-01-09 06:15:00
10:35 PM,41.0,41.0,100,30.17,5.0,Calm,Calm,-,N/A,,Clear,0,2013-01-09 06:35:00
10:55 PM,41.0,41.0,100,30.18,4.0,SSW,4.6,-,N/A,,Clear,200,2013-01-09 06:55:00
11:15 PM,42.8,42.8,100,30.18,4.0,South,6.9,-,N/A,,Clear,190,2013-01-09 07:15:00
11:35 PM,42.8,42.8,100,30.17,5.0,SSW,4.6,-,N/A,,Clear,200,2013-01-09 07:35:00
11:55 PM,42.8,42.8,100,30.17,4.0,South,5.8,-,N/A,,Clear,180,2013-01-09 07:55:00